W3FFZ-2 Weather Reports


Display with metric or nautical units.
time (UTC)temp
F
wind
direction
speed
MPH
gust
MPH
rain 1hr
in
rain 24hr
in
rain mn
in
humidity
%
barometer
mb
20191017110003 42 239 0.0 8.0 0.00 0.00 0.00 100
20191017100003 42 168 0.0 9.0 0.00 0.00 0.00 100
20191017090004 43 281 0.0 8.0 0.00 0.00 0.00 100
20191017080003 43 303 0.0 11.0 0.00 0.00 0.00 100
20191017070004 43 293 0.0 8.0 0.00 0.00 0.00 100
20191017060006 44 222 0.0 10.0 0.00 0.00 0.00 100
20191017050004 44 196 0.0 4.0 0.00 0.00 0.00 100
20191017040004 45 358 3.0 7.0 0.00 0.00 0.00 100
20191017030004 45 177 3.0 12.0 0.00 0.00 0.00 100
20191017020004 45 192 0.0 14.0 0.00 0.00 0.00 100
20191017010004 45 157 0.0 10.0 0.00 0.00 0.00 100
20191017000004 45 165 0.0 10.0 0.00 0.00 0.00 100
20191016230005 45 237 0.0 10.0 0.00 0.00 0.00 100
20191016220005 46 206 0.0 11.0 0.00 0.00 0.00 100
20191016210005 47 267 0.0 9.0 0.00 0.00 0.00 100
20191016190005 48 270 6.0 9.0 0.00 0.00 0.00 100
20191016180005 49 217 3.0 11.0 0.00 0.00 0.00 100
20191016150006 49 14 0.0 7.0 0.00 0.00 0.00 100
20191016140006 54 225 6.0 8.0 0.00 0.00 0.00 100
20191016130007 54 174 0.0 6.0 0.00 0.00 0.00 100
20191016120006 54 220 0.0 8.0 0.00 0.00 0.00 100
20191016110007 59 208 5.0 12.0 0.00 0.00 0.00 100